QPF
0.01 0.01 0.01 0.02 0.03 0.03 0.03 0.04 0.04 0.03 0.03 0.02 0.01 0.01 0.03 0.03 0.04 0.05 0.04 0.06 0.08 0.09 0.09 0.08 0.08 0.07 0.07 0.07 0.07 0.06 0.05 0.06 0.07 0.08 0.06 0.04 0.04 0.04
0.02 0.02 0.02 0.03 0.03 0.04 0.05 0.06 0.06 0.05 0.04 0.03 0.01 0.01 0.01 0.02 0.03 0.03 0.04 0.05 0.07 0.06 0.05 0.05 0.06 0.07 0.07 0.07 0.07 0.08 0.07 0.06 0.05 0.05 0.05 0.04 0.03 0.03
0.02 0.02 0.02 0.03 0.04 0.03 0.03 0.05 0.06 0.06 0.05 0.04 0.03 0.03 0.02 0.02 0.03 0.04 0.04 0.05 0.07 0.06 0.04 0.03 0.03 0.04 0.04 0.05 0.05 0.05 0.07 0.07 0.06 0.05 0.04 0.04 0.03 0.03
0.02 0.02 0.02 0.03 0.04 0.05 0.04 0.04 0.04 0.04 0.04 0.04 0.04 0.03 0.02 0.02 0.03 0.03 0.04 0.05 0.06 0.06 0.05 0.04 0.03 0.04 0.03 0.03 0.04 0.05 0.06 0.06 0.05 0.05 0.04 0.03 0.03 0.02
0.02 0.02 0.02 0.04 0.05 0.05 0.04 0.03 0.03 0.03 0.03 0.03 0.03 0.02 0.01 0.02 0.03 0.02 0.03 0.04 0.05 0.06 0.05 0.03 0.02 0.02 0.03 0.03 0.03 0.04 0.05 0.05 0.04 0.04 0.04 0.04 0.03 0.03
0.02 0.02 0.03 0.04 0.04 0.05 0.04 0.03 0.03 0.03 0.02 0.02 0.01 0.01 0.01 0.01 0.03 0.03 0.04 0.03 0.04 0.05 0.06 0.04 0.03 0.02 0.02 0.03 0.02 0.03 0.04 0.05 0.05 0.04 0.03 0.03 0.03 0.03
0.01 0.02 0.03 0.03 0.04 0.06 0.06 0.05 0.04 0.02 0.01 0.01 0.01 0.01 0.01 0.02 0.03 0.03 0.04 0.05 0.05 0.05 0.05 0.05 0.04 0.03 0.03 0.03 0.03 0.03 0.04 0.05 0.05 0.04 0.03 0.03 0.02 0.02
0.02 0.02 0.02 0.03 0.04 0.05 0.06 0.06 0.06 0.04 0.01 0.01 0.01 0.01 0.02 0.03 0.04 0.05 0.05 0.06 0.08 0.06 0.05 0.05 0.05 0.05 0.04 0.03 0.04 0.03 0.03 0.04 0.05 0.04 0.04 0.03 0.02 0.02
0.02 0.02 0.02 0.02 0.03 0.02 0.03 0.04 0.05 0.04 0.02 0.02 0.03 0.03 0.03 0.04 0.04 0.05 0.04 0.04 0.06 0.07 0.07 0.07 0.06 0.07 0.07 0.06 0.05 0.04 0.03 0.03 0.04 0.03 0.03 0.02 0.02 0.02
0.01 0.01 0.01 0.01 0.01 0.02 0.02 0.02 0.04 0.04 0.03 0.04 0.04 0.04 0.04 0.04 0.05 0.05 0.05 0.05 0.05 0.06 0.06 0.07 0.06 0.06 0.07 0.07 0.06 0.05 0.04 0.04 0.04 0.04 0.03 0.03 0.02 0.02
0.01 0.01 0.01 0.01 0.01 0.02 0.01 0.02 0.03 0.03 0.03 0.05 0.03 0.03 0.03 0.03 0.04 0.06 0.07 0.07 0.07 0.06 0.06 0.06 0.05 0.04 0.05 0.07 0.07 0.05 0.05 0.04 0.04 0.04 0.03 0.03 0.04 0.04
0.01 0.01 0.01 0.01 0.01 0.01 0.01 0.01 0.01 0.02 0.03 0.03 0.03 0.02 0.02 0.03 0.04 0.04 0.04 0.05 0.05 0.06 0.06 0.07 0.06 0.04 0.04 0.04 0.07 0.06 0.05 0.05 0.05 0.04 0.04 0.04 0.04 0.04
0.01 0.01 0.01 0.01 0.01 0.01 0.02 0.03 0.03 0.03 0.03 0.03 0.04 0.03 0.02 0.02 0.03 0.04 0.05 0.05 0.05 0.05 0.04 0.04 0.05 0.04 0.04 0.04 0.06 0.07 0.06 0.05 0.05 0.04 0.04 0.04 0.03 0.03
0.02 0.02 0.01 0.01 0.01 0.01 0.01 0.03 0.06 0.07 0.04 0.02 0.02 0.03 0.02 0.02 0.02 0.03 0.04 0.04 0.03 0.05 0.04 0.04 0.04 0.03 0.03 0.04 0.05 0.06 0.06 0.05 0.06 0.05 0.04 0.04 0.03 0.03
0.02 0.02 0.01 0.01 0.01 0.00 0.01 0.01 0.01 0.05 0.06 0.04 0.02 0.02 0.02 0.01 0.02 0.03 0.04 0.04 0.03 0.02 0.02 0.02 0.03 0.03 0.03 0.03 0.04 0.05 0.06 0.06 0.06 0.06 0.05 0.04 0.04 0.03
0.01 0.01 0.01 0.01 0.01 0.01 0.01 0.01 0.01 0.01 0.01 0.02 0.02 0.02 0.02 0.02 0.01 0.01 0.02 0.03 0.04 0.03 0.02 0.02 0.02 0.03 0.03 0.03 0.03 0.04 0.05 0.05 0.05 0.06 0.06 0.05 0.04 0.04
0.01 0.01 0.01 0.01 0.01 0.01 0.01 0.01 0.01 0.02 0.02 0.02 0.02 0.01 0.01 0.01 0.01 0.02 0.02 0.03 0.03 0.03 0.03 0.03 0.03 0.04 0.04 0.03 0.03 0.03 0.03 0.03 0.03 0.04 0.06 0.06 0.06 0.06
0.01 0.01 0.01 0.01 0.01 0.01 0.01 0.01 0.01 0.02 0.02 0.02 0.03 0.03 0.01 0.01 0.01 0.01 0.02 0.03 0.03 0.02 0.02 0.02 0.02 0.03 0.03 0.03 0.03 0.03 0.02 0.02 0.02 0.03 0.04 0.05 0.06 0.06
0.01 0.00 0.00 0.01 0.01 0.01 0.01 0.01 0.01 0.02 0.02 0.03 0.03 0.02 0.02 0.01 0.02 0.02 0.02 0.02 0.03 0.03 0.02 0.02 0.03 0.03 0.03 0.03 0.03 0.03 0.02 0.02 0.02 0.03 0.03 0.03 0.04 0.05
0.00 0.00 0.00 0.00 0.00 0.01 0.01 0.02 0.01 0.01 0.02 0.03 0.03 0.03 0.02 0.02 0.02 0.03 0.03 0.03 0.03 0.03 0.03 0.03 0.03 0.04 0.05 0.05 0.04 0.04 0.03 0.02 0.02 0.02 0.02 0.02 0.03 0.04
0.01 0.00 0.00 0.00 0.01 0.01 0.02 0.01 0.01 0.01 0.01 0.02 0.03 0.02 0.02 0.02 0.02 0.03 0.03 0.04 0.04 0.04 0.04 0.05 0.05 0.04 0.03 0.03 0.03 0.03 0.03 0.04 0.04 0.04 0.04 0.04 0.04 0.05
0.01 0.01 0.01 0.01 0.01 0.01 0.01 0.01 0.01 0.01 0.01 0.01 0.01 0.01 0.01 0.01 0.02 0.02 0.03 0.03 0.04 0.04 0.05 0.05 0.03 0.02 0.02 0.03 0.03 0.03 0.03 0.03 0.03 0.04 0.04 0.04 0.04 0.05
0.01 0.01 0.01 0.01 0.01 0.01 0.00 0.00 0.00 0.00 0.00 0.00 0.00 0.00 0.01 0.01 0.02 0.02 0.02 0.03 0.03 0.03 0.03 0.04 0.03 0.02 0.02 0.02 0.03 0.03 0.03 0.03 0.03 0.03 0.03 0.03 0.04 0.04
MSLP
1016.47 1016.80 1017.14 1017.49 1017.81 1018.08 1018.28 1018.40 1018.45 1018.42 1018.32 1018.18 1017.99 1017.78 1017.55 1017.31 1017.08 1016.85 1016.65 1016.49 1016.39 1016.35 1016.37 1016.45 1016.58 1016.74 1016.89 1017.02 1017.11 1017.14 1017.11 1017.05 1016.97 1016.89 1016.82 1016.80 1016.81 1016.86
1016.40 1016.68 1016.97 1017.26 1017.54 1017.79 1017.99 1018.15 1018.25 1018.28 1018.25 1018.17 1018.03 1017.84 1017.61 1017.35 1017.06 1016.78 1016.50 1016.26 1016.08 1015.97 1015.93 1015.96 1016.05 1016.18 1016.32 1016.45 1016.55 1016.61 1016.62 1016.60 1016.56 1016.52 1016.49 1016.48 1016.50 1016.55
1016.34 1016.57 1016.80 1017.03 1017.26 1017.49 1017.69 1017.87 1018.01 1018.10 1018.14 1018.12 1018.04 1017.89 1017.68 1017.41 1017.10 1016.77 1016.44 1016.13 1015.87 1015.68 1015.56 1015.52 1015.54 1015.61 1015.70 1015.80 1015.89 1015.95 1015.99 1016.00 1016.00 1016.00 1016.01 1016.04 1016.08 1016.14
1016.28 1016.46 1016.63 1016.81 1016.99 1017.18 1017.38 1017.56 1017.73 1017.86 1017.96 1018.00 1017.97 1017.87 1017.69 1017.44 1017.14 1016.79 1016.42 1016.06 1015.74 1015.47 1015.27 1015.14 1015.07 1015.06 1015.08 1015.12 1015.17 1015.21 1015.25 1015.28 1015.31 1015.35 1015.40 1015.46 1015.53 1015.61
1016.19 1016.32 1016.45 1016.58 1016.72 1016.88 1017.05 1017.22 1017.39 1017.55 1017.68 1017.76 1017.78 1017.73 1017.59 1017.38 1017.09 1016.75 1016.38 1016.00 1015.63 1015.31 1015.03 1014.82 1014.66 1014.55 1014.48 1014.45 1014.43 1014.43 1014.45 1014.48 1014.52 1014.59 1014.67 1014.77 1014.87 1014.97
1016.05 1016.15 1016.25 1016.34 1016.44 1016.56 1016.70 1016.85 1017.01 1017.16 1017.30 1017.40 1017.44 1017.42 1017.33 1017.16 1016.91 1016.61 1016.26 1015.88 1015.51 1015.15 1014.83 1014.54 1014.30 1014.10 1013.94 1013.81 1013.72 1013.67 1013.64 1013.65 1013.70 1013.77 1013.87 1013.99 1014.12 1014.24
1015.82 1015.91 1015.98 1016.05 1016.13 1016.22 1016.32 1016.43 1016.56 1016.69 1016.81 1016.90 1016.95 1016.95 1016.89 1016.76 1016.57 1016.31 1016.01 1015.67 1015.31 1014.95 1014.60 1014.27 1013.97 1013.69 1013.45 1013.25 1013.08 1012.96 1012.88 1012.86 1012.88 1012.95 1013.05 1013.18 1013.33 1013.47
1015.50 1015.57 1015.64 1015.70 1015.76 1015.83 1015.90 1015.98 1016.06 1016.15 1016.23 1016.30 1016.34 1016.35 1016.30 1016.21 1016.06 1015.86 1015.62 1015.33 1015.02 1014.68 1014.34 1014.00 1013.66 1013.33 1013.03 1012.76 1012.53 1012.34 1012.22 1012.15 1012.14 1012.18 1012.27 1012.39 1012.54 1012.68
1015.05 1015.13 1015.21 1015.28 1015.34 1015.39 1015.44 1015.49 1015.53 1015.57 1015.61 1015.64 1015.65 1015.64 1015.61 1015.54 1015.44 1015.29 1015.10 1014.88 1014.62 1014.33 1014.01 1013.68 1013.34 1012.99 1012.65 1012.34 1012.06 1011.83 1011.66 1011.54 1011.49 1011.50 1011.56 1011.66 1011.78 1011.91
1014.50 1014.59 1014.69 1014.77 1014.85 1014.91 1014.95 1014.97 1014.98 1014.98 1014.98 1014.96 1014.94 1014.91 1014.87 1014.81 1014.74 1014.63 1014.50 1014.33 1014.12 1013.88 1013.61 1013.31 1012.98 1012.64 1012.30 1011.97 1011.67 1011.41 1011.20 1011.05 1010.95 1010.92 1010.94 1011.00 1011.08 1011.18
1013.87 1013.99 1014.11 1014.22 1014.32 1014.40 1014.44 1014.45 1014.44 1014.41 1014.36 1014.31 1014.25 1014.20 1014.14 1014.09 1014.02 1013.94 1013.84 1013.71 1013.56 1013.36 1013.13 1012.87 1012.58 1012.27 1011.95 1011.63 1011.32 1011.05 1010.82 1010.64 1010.51 1010.43 1010.40 1010.41 1010.45 1010.50
1013.22 1013.36 1013.51 1013.65 1013.78 1013.87 1013.93 1013.94 1013.92 1013.86 1013.79 1013.70 1013.62 1013.54 1013.46 1013.39 1013.32 1013.25 1013.16 1013.06 1012.94 1012.78 1012.59 1012.37 1012.12 1011.84 1011.55 1011.26 1010.98 1010.72 1010.48 1010.28 1010.13 1010.01 1009.93 1009.89 1009.87 1009.88
1012.59 1012.75 1012.93 1013.10 1013.25 1013.36 1013.42 1013.44 1013.41 1013.34 1013.25 1013.14 1013.03 1012.92 1012.83 1012.74 1012.66 1012.58 1012.49 1012.40 1012.28 1012.15 1011.99 1011.80 1011.59 1011.36 1011.11 1010.86 1010.61 1010.38 1010.15 1009.95 1009.78 1009.64 1009.52 1009.43 1009.35 1009.31
1012.03 1012.21 1012.40 1012.59 1012.75 1012.86 1012.93 1012.94 1012.90 1012.83 1012.72 1012.60 1012.47 1012.35 1012.23 1012.12 1012.02 1011.93 1011.83 1011.72 1011.61 1011.48 1011.34 1011.18 1011.01 1010.82 1010.62 1010.42 1010.21 1010.01 1009.81 1009.63 1009.45 1009.29 1009.14 1009.00 1008.89 1008.79
1011.54 1011.74 1011.94 1012.12 1012.28 1012.39 1012.44 1012.44 1012.39 1012.31 1012.19 1012.06 1011.93 1011.79 1011.66 1011.53 1011.42 1011.30 1011.18 1011.06 1010.94 1010.81 1010.68 1010.54 1010.39 1010.25 1010.09 1009.94 1009.78 1009.62 1009.45 1009.28 1009.11 1008.94 1008.78 1008.61 1008.46 1008.32
1011.13 1011.33 1011.52 1011.69 1011.83 1011.91 1011.94 1011.92 1011.86 1011.76 1011.64 1011.51 1011.37 1011.23 1011.10 1010.96 1010.83 1010.70 1010.57 1010.43 1010.30 1010.16 1010.03 1009.91 1009.78 1009.67 1009.55 1009.44 1009.32 1009.20 1009.07 1008.92 1008.77 1008.60 1008.42 1008.24 1008.06 1007.89
1010.74 1010.94 1011.12 1011.27 1011.37 1011.42 1011.42 1011.38 1011.30 1011.20 1011.07 1010.94 1010.81 1010.68 1010.55 1010.42 1010.28 1010.14 1010.00 1009.86 1009.71 1009.58 1009.44 1009.32 1009.22 1009.12 1009.04 1008.95 1008.87 1008.77 1008.66 1008.54 1008.39 1008.23 1008.05 1007.86 1007.67 1007.48
1010.34 1010.53 1010.69 1010.81 1010.88 1010.89 1010.87 1010.80 1010.71 1010.61 1010.49 1010.37 1010.26 1010.14 1010.03 1009.91 1009.79 1009.66 1009.51 1009.37 1009.22 1009.08 1008.95 1008.83 1008.73 1008.64 1008.57 1008.50 1008.43 1008.34 1008.25 1008.13 1007.98 1007.82 1007.64 1007.45 1007.25 1007.06
1009.86 1010.04 1010.18 1010.27 1010.32 1010.31 1010.27 1010.19 1010.11 1010.01 1009.91 1009.82 1009.74 1009.65 1009.57 1009.47 1009.37 1009.25 1009.12 1008.98 1008.84 1008.69 1008.56 1008.44 1008.33 1008.24 1008.16 1008.08 1008.00 1007.91 1007.80 1007.67 1007.52 1007.35 1007.16 1006.96 1006.77 1006.57
1009.28 1009.45 1009.57 1009.65 1009.68 1009.67 1009.62 1009.56 1009.49 1009.43 1009.36 1009.31 1009.27 1009.22 1009.17 1009.11 1009.03 1008.94 1008.82 1008.69 1008.55 1008.41 1008.27 1008.14 1008.02 1007.90 1007.79 1007.69 1007.57 1007.45 1007.31 1007.15 1006.97 1006.78 1006.58 1006.38 1006.18 1006.00
1008.58 1008.74 1008.86 1008.94 1008.97 1008.97 1008.96 1008.93 1008.90 1008.87 1008.86 1008.86 1008.86 1008.86 1008.85 1008.82 1008.78 1008.70 1008.61 1008.49 1008.35 1008.21 1008.05 1007.90 1007.75 1007.60 1007.45 1007.29 1007.13 1006.95 1006.76 1006.55 1006.33 1006.11 1005.89 1005.68 1005.48 1005.31
1007.79 1007.95 1008.07 1008.16 1008.22 1008.26 1008.28 1008.31 1008.33 1008.37 1008.41 1008.47 1008.52 1008.56 1008.59 1008.60 1008.58 1008.52 1008.44 1008.33 1008.19 1008.03 1007.86 1007.68 1007.50 1007.30 1007.09 1006.87 1006.64 1006.40 1006.14 1005.87 1005.60 1005.34 1005.09 1004.87 1004.67 1004.51
1006.94 1007.10 1007.24 1007.36 1007.46 1007.56 1007.64 1007.73 1007.82 1007.93 1008.03 1008.14 1008.24 1008.32 1008.38 1008.41 1008.40 1008.36 1008.28 1008.17 1008.02 1007.85 1007.66 1007.45 1007.21 1006.97 1006.70 1006.41 1006.11 1005.80 1005.47 1005.14 1004.82 1004.51 1004.24 1004.00 1003.80 1003.65
Thickness
5635 5634 5633 5632 5631 5631 5630 5630 5629 5629 5631 5634 5636 5639 5641 5643 5646 5648 5650 5652 5653 5654 5655 5655 5655 5655 5655 5656 5656 5656 5656 5656 5656 5656 5657 5657 5657 5657
5631 5630 5629 5628 5627 5626 5625 5624 5624 5624 5625 5627 5629 5631 5633 5636 5638 5640 5642 5644 5646 5647 5648 5648 5649 5649 5650 5650 5651 5651 5651 5651 5651 5651 5651 5652 5652 5652
5628 5626 5624 5623 5622 5621 5619 5619 5618 5618 5618 5621 5621 5623 5625 5627 5630 5632 5634 5636 5638 5639 5641 5641 5642 5643 5644 5644 5645 5645 5645 5645 5646 5646 5646 5646 5647 5647
5624 5622 5620 5619 5617 5616 5614 5613 5612 5612 5612 5613 5615 5615 5617 5619 5621 5623 5626 5629 5630 5632 5633 5634 5635 5636 5637 5638 5638 5639 5639 5639 5640 5640 5640 5641 5641 5641
5620 5618 5616 5614 5613 5611 5610 5608 5607 5607 5606 5606 5607 5608 5609 5611 5612 5614 5617 5619 5622 5624 5626 5627 5628 5629 5630 5631 5632 5633 5633 5634 5634 5634 5634 5634 5634 5635
5617 5615 5613 5611 5609 5608 5606 5604 5603 5601 5600 5599 5599 5600 5601 5603 5603 5606 5608 5611 5613 5616 5619 5621 5622 5623 5624 5625 5625 5626 5626 5626 5627 5627 5628 5628 5628 5628
5612 5610 5609 5607 5606 5603 5602 5600 5598 5597 5595 5593 5593 5593 5594 5595 5597 5598 5599 5602 5604 5607 5610 5613 5614 5616 5616 5617 5618 5619 5619 5620 5620 5620 5621 5621 5621 5622
5607 5605 5604 5603 5601 5599 5597 5595 5593 5591 5590 5588 5588 5587 5588 5589 5589 5590 5591 5593 5597 5600 5601 5604 5606 5607 5609 5610 5611 5611 5612 5613 5613 5613 5614 5614 5615 5615
5602 5600 5599 5598 5596 5594 5592 5590 5588 5586 5585 5584 5582 5582 5582 5583 5582 5583 5584 5585 5588 5591 5591 5595 5597 5599 5601 5602 5604 5604 5605 5605 5605 5606 5606 5607 5607 5608
5597 5595 5593 5592 5591 5589 5588 5585 5583 5582 5581 5579 5578 5577 5577 5576 5576 5577 5577 5577 5579 5582 5583 5585 5588 5590 5593 5594 5595 5596 5597 5597 5597 5598 5599 5600 5600 5601
5593 5591 5589 5588 5586 5584 5582 5580 5579 5577 5576 5574 5573 5572 5571 5571 5570 5569 5570 5571 5574 5576 5576 5576 5579 5580 5582 5585 5587 5587 5588 5589 5589 5590 5592 5592 5593 5593
5589 5587 5585 5583 5580 5578 5576 5574 5573 5572 5570 5569 5567 5566 5566 5565 5564 5564 5565 5565 5566 5569 5571 5569 5571 5572 5574 5577 5578 5579 5580 5581 5582 5584 5585 5586 5586 5586
5585 5583 5581 5578 5576 5573 5571 5569 5568 5566 5565 5563 5562 5561 5560 5560 5559 5559 5559 5559 5560 5563 5565 5564 5565 5565 5566 5568 5570 5572 5573 5575 5576 5577 5578 5579 5579 5579
5581 5579 5576 5574 5571 5569 5567 5565 5563 5561 5559 5557 5556 5555 5554 5554 5555 5554 5554 5554 5555 5557 5558 5558 5559 5560 5560 5561 5563 5565 5566 5568 5569 5570 5571 5571 5572 5572
5576 5574 5571 5569 5566 5564 5562 5559 5557 5555 5554 5552 5551 5550 5549 5549 5549 5549 5550 5550 5550 5551 5552 5552 5553 5554 5555 5556 5558 5559 5560 5562 5564 5564 5565 5565 5566 5566
5571 5569 5566 5563 5561 5558 5556 5554 5552 5550 5548 5546 5546 5545 5544 5543 5544 5544 5545 5545 5546 5547 5547 5547 5548 5549 5550 5551 5553 5554 5555 5556 5558 5558 5558 5559 5560 5561
5566 5564 5561 5558 5556 5553 5550 5548 5546 5544 5542 5541 5540 5539 5539 5538 5538 5538 5538 5539 5540 5541 5542 5542 5542 5542 5543 5545 5547 5549 5550 5550 5551 5552 5552 5553 5554 5555
5561 5558 5555 5552 5549 5547 5544 5542 5540 5538 5537 5535 5534 5533 5533 5533 5533 5533 5532 5533 5534 5535 5537 5537 5537 5538 5538 5539 5539 5542 5544 5544 5545 5545 5546 5547 5549 5550
5556 5554 5550 5547 5544 5541 5538 5536 5535 5532 5530 5529 5529 5528 5527 5527 5527 5527 5527 5528 5529 5530 5531 5531 5531 5533 5535 5536 5536 5534 5537 5538 5538 5539 5539 5541 5543 5545
5551 5549 5546 5543 5540 5537 5535 5533 5531 5529 5526 5525 5524 5523 5523 5522 5522 5522 5522 5522 5523 5524 5525 5526 5526 5527 5528 5529 5529 5529 5529 5531 5532 5532 5533 5534 5535 5536
5547 5544 5542 5540 5537 5535 5532 5530 5527 5525 5523 5522 5520 5519 5518 5518 5517 5517 5517 5515 5517 5518 5520 5521 5521 5520 5520 5521 5522 5524 5524 5523 5525 5526 5527 5529 5530 5531
5544 5542 5540 5537 5534 5532 5529 5527 5525 5523 5520 5519 5517 5516 5515 5514 5513 5513 5512 5512 5513 5513 5514 5515 5514 5514 5515 5516 5517 5518 5519 5518 5518 5519 5520 5522 5524 5526
5541 5539 5536 5534 5532 5529 5527 5524 5522 5520 5517 5515 5514 5512 5511 5509 5508 5508 5508 5508 5508 5509 5510 5510 5509 5509 5510 5510 5511 5512 5513 5513 5513 5514 5515 5515 5516 5517